www.pogodaiklimat.ru
Время
и дата
18:51 29.12
19:51 29.12
20:51 29.12
21:51 29.12
22:51 29.12
23:51 29.12
00:51 30.12
01:51 30.12
02:37 30.12
02:51 30.12
03:08 30.12
03:51 30.12
04:51 30.12
05:51 30.12
06:51 30.12
07:51 30.12
08:51 30.12
09:51 30.12
10:51 30.12
11:51 30.12
12:51 30.12
13:51 30.12
14:51 30.12
15:51 30.12
16:51 30.12
17:51 30.12
18:51 30.12
19:51 30.12
20:51 30.12
21:51 30.12
22:51 30.12
23:51 30.12
00:51 31.12
01:51 31.12
02:51 31.12
03:51 31.12
04:51 31.12
05:51 31.12
06:51 31.12
07:51 31.12
08:51 31.12
09:51 31.12
10:51 31.12
11:46 31.12
11:51 31.12
12:51 31.12
13:51 31.12
14:51 31.12
Ветер
(напр.,м/с)
Видим. Явления Облачность Т
(С)
Тd
(С)
f
(%)
Тe
(С)
Тes
(С)
Комфортность P
(гПа)
Po
(гПа)
Тmin
(С)
Tmax
(С)
R
(мм)
R24
(мм)
S
(см)
ЮВ 3 16 км 8/5 1110 м
[Ac]
+13.3 +10.0 80 +11 +11 1012.8 1012.3 0.3
ЮВ 2 16 км 8/5 1290 м
[Ac]
+12.8 +8.9 77 +11 +11 1012.8 1012.3
ЮВ 3 16 км 8/8 1140 м +13.3 +8.3 72 +11 +11 1013.0 1012.6
ЮВ 2 16 км 8/8 600 м +13.9 +7.8 67 +12 +12 1013.2 1012.6 +12.8 +14.4 0.3
ЮВ 2 16 км 8/8 840 м
[Ac]
+13.3 +7.8 69 +11 +11 1013.1 1012.6
ЮВ 2 16 км 10/10 870 м +13.3 +7.8 69 +12 +12 1012.6 1012.3
ЮВ 2 16 км 8/8 810 м +13.3 +7.2 67 +12 +12 1012.3 1011.9
ЮВ 2 16 км 8/8 810 м +13.3 +8.3 72 +11 +11 1012.4 1011.9
В 1 14 км слабый дождь 10/10 480 м +12.8 +8.9 77 +11 +11 1011.6
ЮВ 2 16 км 10/10 480 м +12.8 +8.3 74 +11 +11 1012.0 1011.6
ЮВ 3 16 км 8/8 450 м +13.3 +8.3 72 +11 +11 1011.6
ЮВ 1 16 км 8/8 780 м +13.3 +8.3 72 +12 +12 1011.7 1011.3 +12.8 +13.9 4.3
Ю 2 16 км 8/8 780 м +13.3 +8.3 72 +12 +12 1011.7 1011.3
ЮВ 2 16 км 8/8 720 м +13.3 +8.3 72 +12 +12 1011.9 1011.6
ЮВ 1 16 км 8/8 840 м +13.3 +7.8 69 +12 +12 1012.1 1011.6
ЮВ 1 16 км 8/8 840 м +13.9 +8.3 69 +13 +13 1012.3 1011.9
ЮВ 1 16 км 5/5 840 м
[Ac]
+15.6 +8.3 62 +15 +16 1012.7 1012.3
Ю 2
{5}
16 км 8/0 2100 м
[Ac]
+16.1 +8.9 62 +15 +16 1012.9 1012.3 +12.8 +16.7
Ю 2 16 км слабая морось 8/8 750 м +16.7 +10.6 67 +16 +17 1012.4 1011.9
Ю 2
{4}
16 км 8/8 900 м
[Ac]
+17.8 +11.1 65 +17 +18 1011.5 1010.9
Ю 3
{4}
16 км 8/8 900 м +16.7 +11.1 70 +16 +16 1010.6 1010.2
Ю 3 16 км 8/8 1230 м
[Ac]
+17.2 +11.1 67 +16 +16 1010.3 1009.9
Ю 2 16 км 5/5 1050 м +16.7 +10.6 67 +16 +17 1010.1 1009.6
Ю 2 16 км 5/5 1050 м +16.1 +11.7 75 +15 +16 1010.1 1009.6 +16.1 +17.8
штиль 0 16 км 5/5 1050 м
[Ac]
+15.6 +12.2 80 +15 +16 1009.7 1009.2
штиль 0 16 км 8/5 1200 м
[Ac]
+15.0 +12.2 83 +15 +15 1009.8 1009.2
штиль 0 16 км 8/5 900 м
[Ac]
+15.0 +11.7 81 +15 +15 1009.8 1009.2
штиль 0 16 км 10/8 1650 м
[Ac]
+14.4 +11.7 84 +14 +14 1009.4 1008.9
штиль 0 16 км 8/8 1950 м
[Ac]
+14.4 +11.1 81 +14 +14 1009.0 1008.5
СЗ 1 16 км 8/5 750 м
[Ac]
+13.9 +11.1 83 +13 +13 1009.0 1008.5 +13.9 +16.1
штиль 0 16 км 8/8 900 м
[Ac]
+13.3 +11.1 87 +13 +13 1008.8 1008.2
штиль 0 16 км слабый дождь 8/5 390 м
[Ac]
+13.3 +11.1 87 +13 +13 1008.3 1007.9
штиль 0 16 км 8/5 780 м
[Ac]
+13.3 +10.6 84 +13 +13 1007.5 1006.9
В 1 16 км 5/2 780 м
[Ac]
+13.3 +9.4 77 +12 +12 1006.6 1006.2
штиль 0 16 км 10/5 1950 м
[Ac]
+13.3 +8.9 75 +13 +13 1006.7 1006.2
штиль 0 16 км 10/8 750 м
[Ac]
+12.2 +8.9 80 +12 +12 1006.2 1005.8 +12.2 +13.9
штиль 0 16 км 10/10 720 м +12.8 +9.4 80 +12 +12 1006.1 1005.5
СВ 1 16 км 10/8 1080 м
[Ac]
+12.8 +9.4 80 +12 +12 1006.4 1005.8
штиль 0 16 км 8/8 1050 м +13.3 +9.4 77 +13 +13 1006.6 1006.2
штиль 0 16 км 8/8 1050 м +12.8 +9.4 80 +12 +12 1007.3 1006.9
штиль 0 16 км 5/5 750 м +15.0 +9.4 69 +15 +16 1008.2 1007.9
нст 1 16 км 8/8 900 м +15.6 +10.0 69 +16 +16 1008.7 1008.2 +12.2 +15.6
З 2 16 км 8/8 900 м +17.2 +12.2 72 +17 +18 1008.6 1008.2
З 2 16 км 8/8 750 м +17.0 +12.0 72 +16 +17 1007.5
З 2 16 км 8/8 750 м +16.7 +11.7 72 +16 +17 1007.9 1007.5
З 2 11 км слабый дождь 10/10 450 м +16.1 +12.2 78 +15 +15 1007.9 1007.5
З 2 14 км 10/10 450 м +15.6 +11.1 75 +14 +14 1007.7 1007.2
штиль 0 16 км 10/10 840 м +17.8 +11.7 67 +18 +18 1007.6 1007.2
Местоположение метеостанции San Diego International Airport: широта 32.7336 долгота -117.1831 высота над уровнем моря 4 м.
В архиве по умолчанию представлена погода в Сан-Диего за последние 1-2 суток. Обновление информации о фактической погоде в базе происходит ежечасно! Архивные данные за месяц целиком и за предыдущие месяцы Вы можете получить, выбрав интересующий диапазон дат из раскрывающегося списка и нажав кнопку "Ввод!".
Внимание! Архив погоды МЕТАР в базе сайта по станциям, не включенным в климатический монитор, хранится не более 60 дней. Нет смысла пытаться выбрать более раннюю дату.
*Определитесь, кто Вы:
Внимание! Время в таблицах - местное (без учета летнего времени). Для получения всемирного времени необходимо вычесть поправку, которая равна -8 ч.
Смотрите также архив погоды в соседних городах и на ближайших метеорологических станциях:
Партнеры нашего сайта:      
Пояснения к столбцам:
  • Ветер - указаны скорость ветра в м/с - средняя за 10 мин, порывы в срок и между сроками (в фигурных скобках) и направление, откуда дует ветер: С - северный,
  • СВ - северо-восточный, В - восточный, ЮВ - юго-восточный, Ю - южный, ЮЗ - юго-западный, З - западный, СЗ - северо-западный.
  • Видимость - горизонтальная дальность видимости в метрах или километрах. При видимости от 1 до 10 км при отсутствии осадков обычно наблюдается дымка, при ухудшении видимости до 1 км и менее - туман. В сухую погоду видимость может ухудшаться дымом, пылью или мглою.
  • Явления - указаны атмосферные явления, наблюдавшиеся в срок или в последний час перед сроком; фигурными скобками обозначены явления, наблюдавшиеся между сроками (за 1-3 часа до срока); квадратными скобками обозначены град или гололедные отложения с указанием их диаметра в мм.
  • Облачность - указаны через наклонную черту общая и нижняя облачность в баллах и высота нижней границы облаков в метрах; квадратными скобками обозначены формы облаков: Ci - перистые, Cs - перисто-слоистые, Cc - перисто-кучевые, Ac - высококучевые, As - высокослоистые, Sc - слоисто-кучевые, Ns - слоисто-дождевые, Cu - кучевые, Cb - кучево-дождевые. Подробнее классификацию облаков см. в Атласе облаков (PDF).
  • T - Температура воздуха - температура, измеренная на высоте 2 м над землей.
  • Td - Температура точки росы - температура, при понижении до которой содержащийся в воздухе водяной пар достигнет насыщения.
  • f - Относительная влажность воздуха - влажноcть воздуха, измеренная на высоте 2 м над землей.
  • Te - Эффективная температура - температура, которую ощущает одетый по сезону человек в тени. Характеристика душности погоды. При расчете учитывается влияние влажности воздуха и скорости ветра на теплоощущения человека.
  • Tes - Эффективная температура на солнце - температура, которую ощущает человек, с поправкой на солнечный нагрев. Характеристика знойности погоды. Зависит от высоты солнца над горизонтом, облачности и скорости ветра. Ночью, в пасмурную погоду, а также при ветре 12 м/с и более поправка равна нулю.
  • P - Атмосферное давление - приведенное к уровню моря атмосферное давление.
  • Po - Атмосферное давление - измеренное на уровне метеостанции атмосферное давление.
  • Tmin - Минимальная температура - минимум температуры воздуха на высоте 2 м над землей.
  • Tmax - Максимальная температура - максимум температуры воздуха на высоте 2 м над землей.
  • R - Количество осадков - Количество выпавших осадков за период времени, мм. При наведении курсора мыши на число - период времени, за который выпало указанное количество осадков.
  • R24 - Количество осадков - Количество выпавших осадков за 24 часа, мм.
  • S - Снежный покров - Высота снежного покрова, см. При наведении курсора мыши на число - состояние снежного покрова и степень покрытия местности в баллах.